,,,PA_Meas_PMT16A,,PR_Meas_QMR101_102,,RH_Meas_QMH101,,SR_Meas_QMS101,,TA_Meas_QMH101,,GenWind,,GenWind,
date,time,status,PA,status,PR,status,RH,status,SR,status,TA,status,DirAvg,status,SpdAvg,
2008-11-18, 00:00:04,VALID,1001.2,VALID,0,VALID,94.0107,VALID,0,VALID,24.7919,VALID,328,VALID,0,
2008-11-18, 00:01:04,VALID,1001.21,VALID,0,VALID,94.0565,VALID,0,VALID,24.8327,VALID,328,VALID,0,
2008-11-18, 00:02:04,VALID,1001.19,VALID,0,VALID,94.1022,VALID,0,VALID,24.8327,VALID,328,VALID,0,
2008-11-18, 00:03:04,VALID,1001.19,VALID,0,VALID,94.1328,VALID,0,VALID,24.8327,VALID,328,VALID,0,
2008-11-18, 00:04:04,VALID,1001.17,VALID,0,VALID,94.148,VALID,0,VALID,24.8522,VALID,328,VALID,0,
2008-11-18, 00:05:04,VALID,1001.15,VALID,0,VALID,94.209,VALID,0,VALID,24.893,VALID,328,VALID,0,
2008-11-18, 00:06:04,VALID,1001.15,VALID,0,VALID,94.2167,VALID,0,VALID,24.8911,VALID,328,VALID,0,
2008-11-18, 00:07:04,VALID,1001.1,VALID,0,VALID,94.2319,VALID,0,VALID,24.8911,VALID,331,VALID,0,
2008-11-18, 00:08:04,VALID,1001.07,VALID,0,VALID,94.2396,VALID,0,VALID,24.8911,VALID,331,VALID,0,
2008-11-18, 00:09:04,VALID,1001.05,VALID,0,VALID,94.2014,VALID,0,VALID,24.9106,VALID,331,VALID,0,
2008-11-18, 00:10:04,VALID,1001.04,VALID,0,VALID,94.1175,VALID,0,VALID,24.9106,VALID,331,VALID,0,
2008-11-18, 00:11:04,VALID,1001.04,VALID,0,VALID,94.0641,VALID,0,VALID,24.9106,VALID,331,VALID,0,
2008-11-18, 00:12:04,VALID,1001.02,VALID,0,VALID,94.0717,VALID,0,VALID,24.9319,VALID,331,VALID,0,
2008-11-18, 00:13:04,VALID,1001.01,VALID,0,VALID,94.0641,VALID,0,VALID,24.9106,VALID,331,VALID,0,
2008-11-18, 00:14:04,VALID,1001,VALID,0,VALID,94.0717,VALID,0,VALID,24.93,VALID,331,VALID,0,
2008-11-18, 00:15:04,VALID,1000.98,VALID,0,VALID,94.0336,VALID,0,VALID,24.93,VALID,331,VALID,0,
2008-11-18, 00:16:04,VALID,1000.96,VALID,0,VALID,94.0031,VALID,0,VALID,24.93,VALID,331,VALID,0,
2008-11-18, 00:17:04,VALID,1000.92,VALID,0,VALID,94.0565,VALID,0,VALID,24.9514,VALID,331,VALID,0,
2008-11-18, 00:18:04,VALID,1000.92,VALID,0,VALID,94.0946,VALID,0,VALID,24.9709,VALID,331,VALID,0,
2008-11-18, 00:19:04,VALID,1000.89,VALID,0,VALID,94.1709,VALID,0,VALID,24.9495,VALID,331,VALID,0,
2008-11-18, 00:20:04,VALID,1000.91,VALID,0,VALID,94.2014,VALID,0,VALID,24.969,VALID,331,VALID,0,
2008-11-18, 00:21:04,VALID,1000.9,VALID,0,VALID,94.2396,VALID,0,VALID,24.9904,VALID,338,VALID,0.426562,
2008-11-18, 00:22:04,VALID,1000.88,VALID,0,VALID,94.1709,VALID,0,VALID,24.9282,VALID,341,VALID,0.5875,
2008-11-18, 00:23:04,VALID,1000.89,VALID,0,VALID,94.209,VALID,0,VALID,24.9709,VALID,341,VALID,0.315234,
2008-11-18, 00:24:04,VALID,1000.9,VALID,0,VALID,94.2243,VALID,0,VALID,24.9495,VALID,341,VALID,0.299219,
2008-11-18, 00:25:04,VALID,1000.93,VALID,0,VALID,94.2853,VALID,0,VALID,24.9495,VALID,341,VALID,0.294141,
2008-11-18, 00:26:04,VALID,1000.88,VALID,0,VALID,94.3082,VALID,0,VALID,24.9319,VALID,341,VALID,0.143359,
2008-11-18, 00:27:04,VALID,1000.89,VALID,0,VALID,94.3387,VALID,0,VALID,24.9514,VALID,341,VALID,0,
2008-11-18, 00:28:04,VALID,1000.86,VALID,0,VALID,94.3311,VALID,0,VALID,24.93,VALID,341,VALID,0.276953,
2008-11-18, 00:29:04,VALID,1000.86,VALID,0,VALID,94.3464,VALID,0,VALID,24.9514,VALID,341,VALID,0.154687,
2008-11-18, 00:30:04,VALID,1000.88,VALID,0,VALID,94.3845,VALID,0,VALID,24.969,VALID,341,VALID,0.341016,
2008-11-18, 00:31:04,VALID,1000.89,VALID,0,VALID,94.4532,VALID,0.100563,VALID,24.969,VALID,341,VALID,0.437891,
2008-11-18, 00:32:04,VALID,1000.94,VALID,0,VALID,94.4684,VALID,0,VALID,24.9671,VALID,356,VALID,0.598828,
2008-11-18, 00:33:04,VALID,1000.91,VALID,0,VALID,94.4608,VALID,0.100563,VALID,24.9476,VALID,358,VALID,0.468359,
2008-11-18, 00:34:04,VALID,1000.9,VALID,0,VALID,94.4379,VALID,0.100563,VALID,24.9476,VALID,358,VALID,0.392188,
2008-11-18, 00:35:04,VALID,1000.88,VALID,0,VALID,94.4532,VALID,0.100563,VALID,24.9476,VALID,358,VALID,0.390625,
2008-11-18, 00:36:04,VALID,1000.9,VALID,0,VALID,94.4989,VALID,0,VALID,24.93,VALID,358,VALID,0.271875,
2008-11-18, 00:37:04,VALID,1000.89,VALID,0,VALID,94.5676,VALID,0,VALID,24.969,VALID,357,VALID,0.373437,
2008-11-18, 00:38:04,VALID,1000.91,VALID,0,VALID,94.5905,VALID,0.100563,VALID,24.9476,VALID,357,VALID,0.206641,
2008-11-18, 00:39:04,VALID,1000.9,VALID,0,VALID,94.5905,VALID,0,VALID,24.969,VALID,357,VALID,0.291797,
2008-11-18, 00:40:04,VALID,1000.88,VALID,0,VALID,94.5676,VALID,0,VALID,24.9904,VALID,357,VALID,0.09375,
2008-11-18, 00:41:04,VALID,1000.86,VALID,0,VALID,94.5676,VALID,0,VALID,24.9885,VALID,357,VALID,0,
2008-11-18, 00:42:04,VALID,1000.89,VALID,0,VALID,94.5752,VALID,0,VALID,25.0079,VALID,357,VALID,0.0621094,
2008-11-18, 00:43:04,VALID,1000.86,VALID,0,VALID,94.5676,VALID,0,VALID,25.0274,VALID,357,VALID,0.184375,
2008-11-18, 00:44:04,VALID,1000.88,VALID,0,VALID,94.5447,VALID,0,VALID,25.0079,VALID,26,VALID,0.317578,
2008-11-18, 00:45:04,VALID,1000.87,VALID,0,VALID,94.4684,VALID,0,VALID,25.0293,VALID,28,VALID,0.142188,
2008-11-18, 00:46:04,VALID,1000.85,VALID,0,VALID,94.4989,VALID,0,VALID,25.0274,VALID,28,VALID,0.00234375,
2008-11-18, 00:47:04,VALID,1000.83,VALID,0,VALID,94.4684,VALID,0,VALID,25.0488,VALID,28,VALID,0.278516,
2008-11-18, 00:48:04,VALID,1000.84,VALID,0,VALID,94.4608,VALID,0,VALID,25.0274,VALID,28,VALID,0.148047,
2008-11-18, 00:49:04,VALID,1000.84,VALID,0,VALID,94.4379,VALID,0,VALID,25.0274,VALID,28,VALID,0.499219,
2008-11-18, 00:50:04,VALID,1000.82,VALID,0,VALID,94.4379,VALID,0,VALID,25.0469,VALID,28,VALID,0.381641,
2008-11-18, 00:51:04,VALID,1000.81,VALID,0,VALID,94.4227,VALID,0,VALID,25.0469,VALID,28,VALID,0.0933594,
2008-11-18, 00:52:04,VALID,1000.78,VALID,0,VALID,94.3845,VALID,0,VALID,25.0682,VALID,28,VALID,0.00195313,
2008-11-18, 00:53:04,VALID,1000.76,VALID,0,VALID,94.3692,VALID,0,VALID,25.0858,VALID,28,VALID,0,
2008-11-18, 00:54:04,VALID,1000.75,VALID,0,VALID,94.3082,VALID,0,VALID,25.1072,VALID,29,VALID,0.164844,
2008-11-18, 00:55:04,VALID,1000.75,VALID,0,VALID,94.3235,VALID,0,VALID,25.1053,VALID,29,VALID,0.187891,
2008-11-18, 00:56:04,VALID,1000.71,VALID,0,VALID,94.2777,VALID,0,VALID,25.1267,VALID,29,VALID,0.118359,
2008-11-18, 00:57:04,VALID,1000.67,VALID,0,VALID,94.2472,VALID,0,VALID,25.1461,VALID,29,VALID,0,
2008-11-18, 00:58:04,VALID,1000.68,VALID,0,VALID,94.2396,VALID,0,VALID,25.1442,VALID,29,VALID,0,
2008-11-18, 00:59:04,VALID,1000.68,VALID,0,VALID,94.1862,VALID,0,VALID,25.1637,VALID,29,VALID,0,
2008-11-18, 01:00:04,VALID,1000.65,VALID,0,VALID,94.1709,VALID,0,VALID,25.1637,VALID,29,VALID,0,
2008-11-18, 01:01:04,VALID,1000.62,VALID,0,VALID,94.1404,VALID,0,VALID,25.1656,VALID,29,VALID,0,
2008-11-18, 01:02:04,VALID,1000.61,VALID,0,VALID,94.1175,VALID,0,VALID,25.1442,VALID,29,VALID,0,
2008-11-18, 01:03:04,VALID,1000.61,VALID,0,VALID,94.1099,VALID,0,VALID,25.1248,VALID,29,VALID,0,
2008-11-18, 01:04:04,VALID,1000.58,VALID,0,VALID,94.1022,VALID,0,VALID,25.1461,VALID,29,VALID,0,
2008-11-18, 01:05:04,VALID,1000.57,VALID,0,VALID,94.087,VALID,0,VALID,25.1442,VALID,29,VALID,0,
2008-11-18, 01:06:04,VALID,1000.55,VALID,0,VALID,94.0717,VALID,0,VALID,25.1461,VALID,29,VALID,0,
2008-11-18, 01:07:04,VALID,1000.55,VALID,0,VALID,94.087,VALID,0,VALID,25.1461,VALID,29,VALID,0,
2008-11-18, 01:08:04,VALID,1000.53,VALID,0,VALID,94.087,VALID,0,VALID,25.1656,VALID,29,VALID,0,
2008-11-18, 01:09:04,VALID,1000.52,VALID,0,VALID,94.0641,VALID,0,VALID,25.1248,VALID,29,VALID,0,
2008-11-18, 01:10:04,VALID,1000.5,VALID,0,VALID,94.087,VALID,0,VALID,25.1053,VALID,29,VALID,0,
2008-11-18, 01:11:04,VALID,1000.49,VALID,0,VALID,94.1709,VALID,0,VALID,25.1656,VALID,29,VALID,0,
2008-11-18, 01:12:04,VALID,1000.47,VALID,0,VALID,94.1251,VALID,0,VALID,25.1461,VALID,29,VALID,0,
2008-11-18, 01:13:04,VALID,1000.48,VALID,0,VALID,94.0794,VALID,0,VALID,25.1267,VALID,29,VALID,0,
2008-11-18, 01:14:04,VALID,1000.46,VALID,0,VALID,94.1099,VALID,0,VALID,25.1072,VALID,29,VALID,0,
2008-11-18, 01:15:04,VALID,1000.44,VALID,0,VALID,94.1022,VALID,0,VALID,25.0877,VALID,29,VALID,0,
2008-11-18, 01:16:04,VALID,1000.39,VALID,0,VALID,94.148,VALID,0,VALID,25.0877,VALID,29,VALID,0,
2008-11-18, 01:17:04,VALID,1000.44,VALID,0,VALID,94.1556,VALID,0,VALID,25.0877,VALID,29,VALID,0,
2008-11-18, 01:18:05,VALID,1000.36,VALID,0,VALID,94.1328,VALID,0,VALID,25.0469,VALID,27,VALID,0.214844,
2008-11-18, 01:19:05,VALID,1000.39,VALID,0,VALID,94.148,VALID,0,VALID,25.0682,VALID,354,VALID,0.563672,
2008-11-18, 01:20:05,VALID,1000.35,VALID,0,VALID,94.1938,VALID,0,VALID,25.0877,VALID,355,VALID,0.333203,
2008-11-18, 01:21:05,VALID,1000.34,VALID,0,VALID,94.1862,VALID,0,VALID,25.0877,VALID,355,VALID,0.433984,
2008-11-18, 01:22:05,VALID,1000.33,VALID,0,VALID,94.2167,VALID,0,VALID,25.0663,VALID,355,VALID,0.317578,
2008-11-18, 01:23:05,VALID,1000.33,VALID,0,VALID,94.209,VALID,0,VALID,25.0877,VALID,355,VALID,0.0945313,
2008-11-18, 01:24:05,VALID,1000.33,VALID,0,VALID,94.1633,VALID,0,VALID,25.1072,VALID,354,VALID,0.453516,
2008-11-18, 01:25:05,VALID,1000.32,VALID,0,VALID,94.1556,VALID,0,VALID,25.1267,VALID,353,VALID,0.164453,
2008-11-18, 01:26:05,VALID,1000.3,VALID,0,VALID,94.1938,VALID,0,VALID,25.1248,VALID,353,VALID,0.119531,
2008-11-18, 01:27:05,VALID,1000.28,VALID,0,VALID,94.1785,VALID,0,VALID,25.1053,VALID,336,VALID,0.0621094,
2008-11-18, 01:28:05,VALID,1000.27,VALID,0,VALID,94.1556,VALID,0,VALID,25.1461,VALID,336,VALID,0,
2008-11-18, 01:29:05,VALID,1000.25,VALID,0,VALID,94.1022,VALID,0,VALID,25.1248,VALID,336,VALID,0,
2008-11-18, 01:30:05,VALID,1000.26,VALID,0,VALID,94.1175,VALID,0,VALID,25.1248,VALID,336,VALID,0.00390625,
2008-11-18, 01:31:05,VALID,1000.27,VALID,0,VALID,94.1022,VALID,0,VALID,25.1461,VALID,336,VALID,0.0105469,
2008-11-18, 01:32:05,VALID,1000.25,VALID,0,VALID,94.1175,VALID,0,VALID,25.1461,VALID,336,VALID,0,
2008-11-18, 01:33:05,VALID,1000.24,VALID,0,VALID,94.1022,VALID,0,VALID,25.1248,VALID,336,VALID,0,
2008-11-18, 01:34:05,VALID,1000.23,VALID,0,VALID,94.1404,VALID,0,VALID,25.1267,VALID,336,VALID,0,
2008-11-18, 01:35:05,VALID,1000.25,VALID,0,VALID,94.1404,VALID,0,VALID,25.1267,VALID,336,VALID,0,
2008-11-18, 01:36:05,VALID,1000.24,VALID,0,VALID,94.1633,VALID,0,VALID,25.1267,VALID,336,VALID,0,
2008-11-18, 01:37:05,VALID,1000.27,VALID,0,VALID,94.1633,VALID,0,VALID,25.1072,VALID,336,VALID,0,
2008-11-18, 01:38:05,VALID,1000.24,VALID,0,VALID,94.148,VALID,0,VALID,25.1072,VALID,336,VALID,0.379297,
2008-11-18, 01:39:05,VALID,1000.25,VALID,0,VALID,94.1251,VALID,0,VALID,25.0663,VALID,354,VALID,0.420703,
2008-11-18, 01:40:05,VALID,1000.28,VALID,0,VALID,94.1099,VALID,0,VALID,25.0469,VALID,355,VALID,0.142578,
2008-11-18, 01:41:05,VALID,1000.26,VALID,0,VALID,94.1175,VALID,0,VALID,25.0274,VALID,355,VALID,0,
2008-11-18, 01:42:05,VALID,1000.29,VALID,0,VALID,94.1633,VALID,0,VALID,25.0079,VALID,355,VALID,0,
2008-11-18, 01:43:05,VALID,1000.23,VALID,0,VALID,94.1785,VALID,0,VALID,24.9885,VALID,354,VALID,0,
2008-11-18, 01:44:05,VALID,1000.21,VALID,0,VALID,94.2243,VALID,0,VALID,25.0098,VALID,354,VALID,0,
2008-11-18, 01:45:05,VALID,1000.24,VALID,0,VALID,94.1862,VALID,0,VALID,24.9885,VALID,354,VALID,0,
2008-11-18, 01:46:05,VALID,1000.22,VALID,0,VALID,94.209,VALID,0,VALID,24.969,VALID,355,VALID,0,
2008-11-18, 01:47:05,VALID,1000.2,VALID,0,VALID,94.2472,VALID,0,VALID,24.969,VALID,355,VALID,0,
2008-11-18, 01:48:05,VALID,1000.2,VALID,0,VALID,94.3082,VALID,0,VALID,24.9885,VALID,355,VALID,0,
2008-11-18, 01:49:05,VALID,1000.2,VALID,0,VALID,94.3006,VALID,0,VALID,24.969,VALID,354,VALID,0,
2008-11-18, 01:50:05,VALID,1000.2,VALID,0,VALID,94.293,VALID,0,VALID,24.969,VALID,355,VALID,0,
2008-11-18, 01:51:05,VALID,1000.17,VALID,0,VALID,94.3082,VALID,0,VALID,24.9904,VALID,355,VALID,0,
2008-11-18, 01:52:05,VALID,1000.19,VALID,0,VALID,94.3464,VALID,0,VALID,24.9904,VALID,355,VALID,0,
2008-11-18, 01:53:05,VALID,1000.19,VALID,0,VALID,94.3616,VALID,0,VALID,24.969,VALID,355,VALID,0,
2008-11-18, 01:54:05,VALID,1000.19,VALID,0,VALID,94.3845,VALID,0,VALID,24.9495,VALID,354,VALID,0,
2008-11-18, 01:55:05,VALID,1000.2,VALID,0,VALID,94.3311,VALID,0,VALID,24.9495,VALID,355,VALID,0,
2008-11-18, 01:56:05,VALID,1000.18,VALID,0,VALID,94.3082,VALID,0,VALID,24.9495,VALID,355,VALID,0,
2008-11-18, 01:57:05,VALID,1000.19,VALID,0,VALID,94.3235,VALID,0,VALID,24.9709,VALID,355,VALID,0,
2008-11-18, 01:58:05,VALID,1000.18,VALID,0,VALID,94.3311,VALID,0,VALID,24.9495,VALID,355,VALID,0,
2008-11-18, 01:59:05,VALID,1000.14,VALID,0,VALID,94.3692,VALID,0,VALID,24.9514,VALID,355,VALID,0,
2008-11-18, 02:00:05,VALID,1000.13,VALID,0,VALID,94.3921,VALID,0,VALID,24.9495,VALID,355,VALID,0,
2008-11-18, 02:01:05,VALID,1000.13,VALID,0,VALID,94.4074,VALID,0,VALID,24.93,VALID,355,VALID,0,
2008-11-18, 02:02:05,VALID,1000.11,VALID,0,VALID,94.3845,VALID,0,VALID,24.9495,VALID,355,VALID,0,
2008-11-18, 02:03:05,VALID,1000.09,VALID,0,VALID,94.3921,VALID,0,VALID,24.9514,VALID,354,VALID,0,
2008-11-18, 02:04:05,VALID,1000.04,VALID,0,VALID,94.3845,VALID,0,VALID,24.9106,VALID,355,VALID,0,
2008-11-18, 02:05:05,VALID,1000.06,VALID,0,VALID,94.3616,VALID,0,VALID,24.9319,VALID,355,VALID,0,
2008-11-18, 02:06:05,VALID,1000.03,VALID,0,VALID,94.3769,VALID,0,VALID,24.8911,VALID,355,VALID,0,
2008-11-18, 02:07:05,VALID,1000.05,VALID,0,VALID,94.3998,VALID,0,VALID,24.9125,VALID,355,VALID,0,
2008-11-18, 02:08:05,VALID,1000.02,VALID,0,VALID,94.415,VALID,0,VALID,24.8716,VALID,355,VALID,0,
2008-11-18, 02:09:05,VALID,1000.03,VALID,0,VALID,94.4455,VALID,0,VALID,24.8716,VALID,355,VALID,0,
2008-11-18, 02:10:05,VALID,1000.02,VALID,0,VALID,94.4989,VALID,0,VALID,24.8911,VALID,355,VALID,0,
2008-11-18, 02:11:05,VALID,1000.02,VALID,0,VALID,94.5295,VALID,0,VALID,24.8911,VALID,355,VALID,0,
2008-11-18, 02:12:05,VALID,1000,VALID,0,VALID,94.5523,VALID,0,VALID,24.9125,VALID,355,VALID,0,
2008-11-18, 02:13:05,VALID,999.989,VALID,0,VALID,94.6134,VALID,0,VALID,24.93,VALID,20,VALID,0.305859,
2008-11-18, 02:14:05,VALID,999.969,VALID,0,VALID,94.7125,VALID,0,VALID,24.9709,VALID,24,VALID,0.625781,
2008-11-18, 02:15:05,VALID,999.959,VALID,0,VALID,94.7736,VALID,0,VALID,25.0274,VALID,15,VALID,0.823828,
2008-11-18, 02:16:05,VALID,999.953,VALID,0,VALID,94.6591,VALID,0,VALID,25.0663,VALID,15,VALID,0.692578,
2008-11-18, 02:17:05,VALID,999.936,VALID,0,VALID,94.682,VALID,0,VALID,25.1267,VALID,24,VALID,0.759766,
2008-11-18, 02:18:05,VALID,999.924,VALID,0,VALID,94.6515,VALID,0,VALID,25.1832,VALID,5,VALID,0.784766,
2008-11-18, 02:19:05,VALID,999.942,VALID,0,VALID,94.5523,VALID,0,VALID,25.2806,VALID,32,VALID,1.07656,
2008-11-18, 02:20:05,VALID,999.921,VALID,0,VALID,94.3387,VALID,0,VALID,25.3974,VALID,24,VALID,0.951563,
2008-11-18, 02:21:05,VALID,999.896,VALID,0,VALID,93.9497,VALID,0,VALID,25.4753,VALID,14,VALID,0.390625,
2008-11-18, 02:22:05,VALID,999.892,VALID,0,VALID,93.6521,VALID,0,VALID,25.5941,VALID,20,VALID,1.18555,
2008-11-18, 02:23:05,VALID,999.886,VALID,0,VALID,93.1868,VALID,0,VALID,25.709,VALID,54,VALID,0.892187,
2008-11-18, 02:24:05,VALID,999.886,VALID,0,VALID,92.6299,VALID,0,VALID,25.7869,VALID,20,VALID,0.723828,
2008-11-18, 02:25:05,VALID,999.933,VALID,0,VALID,92.2255,VALID,0,VALID,25.8453,VALID,14,VALID,1.35469,
2008-11-18, 02:26:05,VALID,999.947,VALID,0,VALID,91.8975,VALID,0,VALID,25.9038,VALID,34,VALID,0.816797,
2008-11-18, 02:27:05,VALID,999.955,VALID,0,VALID,91.4474,VALID,0,VALID,25.9622,VALID,14,VALID,1.51563,
2008-11-18, 02:28:05,VALID,999.986,VALID,0,VALID,91.0812,VALID,0,VALID,26.081,VALID,36,VALID,0.925391,
2008-11-18, 02:29:05,VALID,1000.02,VALID,0,VALID,90.6616,VALID,0,VALID,26.118,VALID,56,VALID,0.889063,
2008-11-18, 02:30:05,VALID,1000.02,VALID,0,VALID,90.4251,VALID,0,VALID,26.157,VALID,21,VALID,0.583984,
2008-11-18, 02:31:05,VALID,1000.09,VALID,0,VALID,90.3107,VALID,0,VALID,26.157,VALID,21,VALID,0.632031,
2008-11-18, 02:32:05,VALID,1000.12,VALID,0,VALID,90.0208,VALID,0,VALID,26.157,VALID,21,VALID,0.705078,
2008-11-18, 02:33:05,VALID,1000.11,VALID,0,VALID,89.7996,VALID,0,VALID,26.2154,VALID,28,VALID,0.235156,
2008-11-18, 02:34:05,VALID,1000.14,VALID,0,VALID,89.5707,VALID,0,VALID,26.2349,VALID,28,VALID,0.224609,
2008-11-18, 02:35:05,VALID,1000.13,VALID,0,VALID,89.2121,VALID,0,VALID,26.2933,VALID,44,VALID,0.351563,
2008-11-18, 02:36:05,VALID,1000.17,VALID,0,VALID,88.9909,VALID,0,VALID,26.3538,VALID,44,VALID,0.142188,
2008-11-18, 02:37:05,VALID,1000.17,VALID,0,VALID,88.8612,VALID,0,VALID,26.3518,VALID,44,VALID,0.0820313,
2008-11-18, 02:38:05,VALID,1000.15,VALID,0,VALID,88.7925,VALID,0,VALID,26.3323,VALID,44,VALID,0.147656,
2008-11-18, 02:39:05,VALID,1000.18,VALID,0,VALID,88.8307,VALID,0,VALID,26.2913,VALID,44,VALID,0.0351563,
2008-11-18, 02:40:05,VALID,1000.13,VALID,0,VALID,88.9833,VALID,0.100563,VALID,26.2933,VALID,44,VALID,0.00195313,
2008-11-18, 02:41:05,VALID,1000.1,VALID,0,VALID,88.9985,VALID,0,VALID,26.2349,VALID,44,VALID,0,
2008-11-18, 02:42:05,VALID,1000.07,VALID,0,VALID,89.2579,VALID,0,VALID,26.1979,VALID,44,VALID,0.319141,
2008-11-18, 02:43:05,VALID,1000.09,VALID,0,VALID,89.4563,VALID,0,VALID,26.0791,VALID,44,VALID,0.290625,
2008-11-18, 02:44:05,VALID,1000.07,VALID,0,VALID,89.7233,VALID,0,VALID,25.9836,VALID,44,VALID,0.235938,
2008-11-18, 02:45:05,VALID,1000.08,VALID,0,VALID,89.9292,VALID,0,VALID,25.8843,VALID,78,VALID,0.797656,
2008-11-18, 02:46:05,VALID,1000.01,VALID,0,VALID,90.2725,VALID,0,VALID,25.8064,VALID,70,VALID,0.200781,
2008-11-18, 02:47:05,VALID,1000,VALID,0,VALID,90.6006,VALID,0,VALID,25.7285,VALID,62,VALID,0.461328,
2008-11-18, 02:48:05,VALID,1000.01,VALID,0,VALID,90.8218,VALID,0,VALID,25.6506,VALID,62,VALID,0.297266,
2008-11-18, 02:49:05,VALID,999.977,VALID,0,VALID,91.0965,VALID,0,VALID,25.6116,VALID,54,VALID,0.455859,
2008-11-18, 02:50:05,VALID,999.963,VALID,0,VALID,91.3101,VALID,0,VALID,25.5551,VALID,45,VALID,0.211719,
2008-11-18, 02:51:05,VALID,999.978,VALID,0,VALID,91.5389,VALID,0,VALID,25.5162,VALID,45,VALID,0.228125,
2008-11-18, 02:52:05,VALID,999.974,VALID,0,VALID,91.7678,VALID,0,VALID,25.4558,VALID,45,VALID,0.189844,
2008-11-18, 02:53:05,VALID,999.965,VALID,0,VALID,91.9662,VALID,0,VALID,25.4169,VALID,45,VALID,0.0621094,
2008-11-18, 02:54:05,VALID,1000.02,VALID,0,VALID,92.1569,VALID,0,VALID,25.3974,VALID,45,VALID,0,
2008-11-18, 02:55:05,VALID,999.961,VALID,0,VALID,92.3629,VALID,0,VALID,25.3779,VALID,45,VALID,0.216406,
2008-11-18, 02:56:05,VALID,1000.01,VALID,0,VALID,92.5612,VALID,0,VALID,25.3993,VALID,44,VALID,0.414063,
2008-11-18, 02:57:05,VALID,1000.05,VALID,0,VALID,92.607,VALID,0,VALID,25.4169,VALID,23,VALID,0.196875,
2008-11-18, 02:58:05,VALID,1000.05,VALID,0,VALID,92.546,VALID,0,VALID,25.4383,VALID,23,VALID,0.273828,
2008-11-18, 02:59:05,VALID,1000.03,VALID,0,VALID,92.462,VALID,0,VALID,25.4363,VALID,23,VALID,0.0539063,
2008-11-18, 03:00:05,VALID,1000.06,VALID,0,VALID,92.4163,VALID,0,VALID,25.4363,VALID,23,VALID,0.320313,
2008-11-18, 03:01:05,VALID,1000.05,VALID,0,VALID,92.5154,VALID,0,VALID,25.3974,VALID,23,VALID,0.308984,
2008-11-18, 03:02:05,VALID,1000.06,VALID,0,VALID,92.6451,VALID,0,VALID,25.3779,VALID,23,VALID,0.159375,
2008-11-18, 03:03:05,VALID,1000.06,VALID,0,VALID,92.6985,VALID,0,VALID,25.3974,VALID,23,VALID,0.295312,
2008-11-18, 03:04:05,VALID,1000.05,VALID,0,VALID,92.729,VALID,0,VALID,25.3779,VALID,24,VALID,0.273438,
2008-11-18, 03:05:05,VALID,1000.02,VALID,0,VALID,92.8435,VALID,0,VALID,25.3584,VALID,24,VALID,0.628516,
2008-11-18, 03:06:05,VALID,999.995,VALID,0,VALID,92.8892,VALID,0,VALID,25.3584,VALID,24,VALID,0.461328,
2008-11-18, 03:07:05,VALID,999.995,VALID,0,VALID,92.8892,VALID,0,VALID,25.339,VALID,25,VALID,0.322266,
2008-11-18, 03:08:05,VALID,999.983,VALID,0,VALID,92.8053,VALID,0,VALID,25.3195,VALID,26,VALID,0.606641,
2008-11-18, 03:09:05,VALID,999.949,VALID,0,VALID,92.9426,VALID,0,VALID,25.3019,VALID,26,VALID,0.646484,
2008-11-18, 03:10:05,VALID,999.954,VALID,0,VALID,93.1334,VALID,0,VALID,25.3,VALID,17,VALID,0.635938,
2008-11-18, 03:11:05,VALID,999.941,VALID,0,VALID,93.1868,VALID,0,VALID,25.339,VALID,38,VALID,1.09023,
2008-11-18, 03:12:05,VALID,999.922,VALID,0,VALID,92.9808,VALID,0,VALID,25.4363,VALID,25,VALID,0.733594,
2008-11-18, 03:13:05,VALID,999.937,VALID,0,VALID,92.6375,VALID,0,VALID,25.4948,VALID,20,VALID,0.839453,
2008-11-18, 03:14:05,VALID,999.924,VALID,0,VALID,92.3323,VALID,0,VALID,25.5727,VALID,17,VALID,0.816016,
2008-11-18, 03:15:05,VALID,999.922,VALID,0,VALID,91.9051,VALID,0,VALID,25.672,VALID,26,VALID,1.01719,
2008-11-18, 03:16:05,VALID,999.955,VALID,0,VALID,91.5923,VALID,0,VALID,25.748,VALID,15,VALID,0.716016,
2008-11-18, 03:17:05,VALID,999.954,VALID,0,VALID,91.3558,VALID,0,VALID,25.7694,VALID,26,VALID,0.669922,
2008-11-18, 03:18:05,VALID,999.937,VALID,0,VALID,90.8371,VALID,0,VALID,25.8453,VALID,12,VALID,1.49727,
2008-11-18, 03:19:05,VALID,999.962,VALID,0,VALID,90.242,VALID,0,VALID,25.9817,VALID,352,VALID,0.410937,
2008-11-18, 03:20:05,VALID,999.96,VALID,0,VALID,89.8835,VALID,0,VALID,26.0421,VALID,8,VALID,0.465234,
2008-11-18, 03:21:05,VALID,999.957,VALID,0,VALID,89.5707,VALID,0,VALID,26.0791,VALID,51,VALID,0.478516,
2008-11-18, 03:22:05,VALID,999.949,VALID,0,VALID,89.4563,VALID,0,VALID,26.12,VALID,7,VALID,0.265625,
2008-11-18, 03:23:05,VALID,999.968,VALID,0,VALID,89.3952,VALID,0,VALID,26.0791,VALID,14,VALID,0.382813,
2008-11-18, 03:24:05,VALID,999.956,VALID,0,VALID,89.2274,VALID,0,VALID,26.0791,VALID,18,VALID,0.574219,
2008-11-18, 03:25:05,VALID,999.989,VALID,0,VALID,89.1053,VALID,0,VALID,26.081,VALID,20,VALID,0.609375,
2008-11-18, 03:26:05,VALID,999.948,VALID,0,VALID,89.0672,VALID,0,VALID,26.0985,VALID,23,VALID,0.439453,
2008-11-18, 03:27:05,VALID,999.977,VALID,0,VALID,88.8841,VALID,0,VALID,26.118,VALID,359,VALID,0.691797,
2008-11-18, 03:28:05,VALID,999.958,VALID,0,VALID,88.9833,VALID,0,VALID,26.118,VALID,7,VALID,0.405859,
2008-11-18, 03:29:05,VALID,999.98,VALID,0,VALID,88.7391,VALID,0,VALID,26.1375,VALID,37,VALID,0.614453,
2008-11-18, 03:30:05,VALID,999.964,VALID,0,VALID,88.5942,VALID,0,VALID,26.157,VALID,37,VALID,0.261719,
2008-11-18, 03:31:05,VALID,999.901,VALID,0,VALID,88.3043,VALID,0,VALID,26.2174,VALID,86,VALID,2.04414,
2008-11-18, 03:32:05,VALID,999.903,VALID,0,VALID,88.0525,VALID,0,VALID,26.2953,VALID,20,VALID,1.08906,
2008-11-18, 03:33:05,VALID,999.887,VALID,0,VALID,87.8542,VALID,0,VALID,26.3323,VALID,73,VALID,0.539063,
2008-11-18, 03:34:05,VALID,999.868,VALID,0,VALID,87.5567,VALID,0,VALID,26.3128,VALID,35,VALID,1.08359,
2008-11-18, 03:35:05,VALID,999.887,VALID,0,VALID,87.5033,VALID,0,VALID,26.3538,VALID,23,VALID,0.878125,
2008-11-18, 03:36:05,VALID,999.872,VALID,0,VALID,87.5872,VALID,0,VALID,26.3733,VALID,30,VALID,0.762891,
2008-11-18, 03:37:05,VALID,999.862,VALID,0,VALID,87.4651,VALID,0,VALID,26.3128,VALID,23,VALID,0.951953,
2008-11-18, 03:38:05,VALID,999.867,VALID,0,VALID,87.4346,VALID,0,VALID,26.3518,VALID,16,VALID,0.560156,
2008-11-18, 03:39:05,VALID,999.861,VALID,0,VALID,87.2057,VALID,0,VALID,26.3733,VALID,32,VALID,0.782422,
2008-11-18, 03:40:05,VALID,999.876,VALID,0,VALID,87.3049,VALID,0,VALID,26.3733,VALID,31,VALID,0.184766,
2008-11-18, 03:41:05,VALID,999.861,VALID,0,VALID,87.3659,VALID,0,VALID,26.3518,VALID,31,VALID,0.292578,
2008-11-18, 03:42:05,VALID,999.881,VALID,0,VALID,87.5109,VALID,0,VALID,26.2933,VALID,19,VALID,1.18047,
2008-11-18, 03:43:05,VALID,999.893,VALID,0,VALID,87.2362,VALID,0,VALID,26.3128,VALID,32,VALID,0.719531,
2008-11-18, 03:44:05,VALID,999.891,VALID,0,VALID,87.4499,VALID,0,VALID,26.2933,VALID,23,VALID,0.759766,
2008-11-18, 03:45:05,VALID,999.887,VALID,0,VALID,87.0913,VALID,0,VALID,26.3343,VALID,34,VALID,0.774219,
2008-11-18, 03:46:05,VALID,999.906,VALID,0,VALID,87.0684,VALID,0,VALID,26.3323,VALID,28,VALID,0.541406,
2008-11-18, 03:47:05,VALID,999.885,VALID,0,VALID,87.282,VALID,0,VALID,26.3323,VALID,28,VALID,0.0929687,
2008-11-18, 03:48:05,VALID,999.914,VALID,0,VALID,87.0226,VALID,0,VALID,26.2739,VALID,23,VALID,0.894531,
2008-11-18, 03:49:05,VALID,999.899,VALID,0,VALID,86.748,VALID,0,VALID,26.3128,VALID,40,VALID,0.360547,
2008-11-18, 03:50:05,VALID,999.905,VALID,0,VALID,86.6641,VALID,0,VALID,26.3323,VALID,26,VALID,0.532812,
2008-11-18, 03:51:05,VALID,999.934,VALID,0,VALID,86.6183,VALID,0,VALID,26.3538,VALID,29,VALID,0.353516,